Orbital Elements at Epoch 2459200.5 (2020-Dec-17.0) TDB
Reference: JPL 22 (heliocentric ecliptic J2000)
Element | Value | Uncertainty (1-sigma) | Units |
e | .08003488269424962 | 5.0977e-08 | |
a | 2.317805301259682 | 1.1633e-08 | au |
q | 2.132300025865253 | 1.2068e-07 | au |
i | 6.783912474469842 | 4.677e-06 | deg |
node | 141.2041366559295 | 5.1351e-05 | deg |
peri | 115.4471395099955 | 6.9053e-05 | deg |
M | 266.5666666257296 | 4.8986e-05 | deg |
tp | 2459535.013151670669 (2021-Nov-16.51315167) | 0.00017656 | TDB |
period | 1288.884065808181 3.53 | 9.7033e-06 2.657e-08 | d yr |
n | .279311390023482 | 2.1028e-09 | deg/d |
Q | 2.50331057665411 | 1.2564e-08 | au |
|
| | Orbit Determination Parameters
Additional Information
|